User: anonymous   Login
Location: Fort Wayne
(41.1310°N, 85.1290°W)
Time: 23:26:39
(UTC-05:00)
Language:

Cosmos 1980 - Orbit

View from above orbital plane
View from above orbital plane
View from above satellite
View from above satellite

Ground track
Ground track

The orbit data is extracted from the following two-line orbital elements,

1 19649U 88102A   15059.22670218  .00000319  00000-0  19069-3 0  9997
2 19649 071.0016 028.6899 0004779 174.4584 185.6592 14.14592640355788
Epoch (UTC): 28 February 2015 05:26:27
Eccentricity: 0.0004779
inclination: 71.0016°
perigee height: 840 km
apogee height: 847 km
right ascension of ascending node: 28.6899°
argument of perigee: 174.4584°
revolutions per day: 14.14592640
mean anomaly at epoch: 185.6592°
orbit number at epoch: 35578

The dashed part of the orbit path shows where the satellite is in the earth's shadow,  

DLR